This is the latest recevied weather packets stored in our database for station/object N3DXC. If no packets are shown the sender has not sent any weather packets the latest 10 day(s).
| Time | Temp. | Humidity | Pressure | Rain* | Wind** | Luminosity | Snow |
|---|---|---|---|---|---|---|---|
| 1777499107 | 13.33° C | 96% | 1006.6 hPa | 2.03 mm | - | - | - |
| 1777498807 | 13.33° C | 96% | 1006.5 hPa | 2.79 mm | - | - | - |
| 1777498507 | 13.33° C | 97% | 1006.4 hPa | 5.84 mm | - | - | - |
| 1777498207 | 13.33° C | 96% | 1006.3 hPa | 6.6 mm | - | - | - |
| 1777497907 | 13.33° C | 96% | 1006.4 hPa | 7.11 mm | - | - | - |
| 1777497607 | 13.33° C | 96% | 1006.4 hPa | 7.37 mm | - | - | - |
| 1777497307 | 13.33° C | 96% | 1006.4 hPa | 8.13 mm | - | - | - |
| 1777497007 | 13.33° C | 96% | 1006.5 hPa | 8.38 mm | - | - | - |
| 1777496707 | 12.78° C | 96% | 1006.3 hPa | 8.38 mm | - | - | - |
| 1777496407 | 13.33° C | 96% | 1006.3 hPa | 8.13 mm | - | - | - |
| 1777496107 | 13.33° C | 96% | 1006.3 hPa | 8.13 mm | - | - | - |
| 1777495807 | 13.33° C | 95% | 1006.3 hPa | 8.13 mm | - | - | - |
| 1777495507 | 13.33° C | 95% | 1006.5 hPa | 7.62 mm | - | - | - |
| 1777495207 | 12.78° C | 95% | 1006.5 hPa | 6.6 mm | - | - | - |
| 1777494909 | 13.33° C | 95% | 1006.5 hPa | 3.56 mm | - | - | - |
| 1777494607 | 13.33° C | 95% | 1005.9 hPa | 2.54 mm | - | - | - |
| 1777494307 | 13.33° C | 95% | 1005.8 hPa | 2.03 mm | - | - | - |
| 1777494007 | 13.33° C | 95% | 1005.9 hPa | 1.52 mm | - | - | - |
| 1777493707 | 13.33° C | 95% | 1006.1 hPa | 0.76 mm | - | - | - |
| 1777493407 | 13.33° C | 94% | 1006 hPa | 0.25 mm | - | - | - |
| 1777493107 | 13.33° C | 94% | 1006 hPa | 0.25 mm | - | - | - |
| 1777492507 | 13.33° C | 93% | 1005.8 hPa | 0 mm | - | - | - |
| 1777492207 | 13.89° C | 94% | 1005.8 hPa | 0.25 mm | - | - | - |
| 1777491907 | 13.89° C | 93% | 1006 hPa | 0.25 mm | - | - | - |
| 1777491607 | 13.89° C | 93% | 1005.9 hPa | 0.25 mm | - | - | - |
* Rain latest hour (hover to see other rain measurements)
** Current wind speed in m/s (hover to see current wind gust speed)